Weather History for KDUX - March, 2013

Change the Weather History Date:

Tuesday, March 5, 2013

  Actual Average (KBGD) Record (KBGD)
Temperature  
Mean Temperature 32 °F 46 °F  
Max Temperature 44 °F 59 °F 84 °F (2009)
Min Temperature 21 °F 33 °F 5 °F (1989)
Degree Days  
Heating Degree Days 32 19  
Month to date heating degree days 97  
Since 1 July heating degree days 3090  
Cooling Degree Days 0 0  
Month to date cooling degree days 0  
Year to date cooling degree days 0  
Moisture  
Dew Point 17 °F    
Average Humidity 57    
Maximum Humidity 93    
Minimum Humidity 27    
Precipitation  
Precipitation 0.00 in 0.04 in 0.36 in (1969)
Month to date precipitation 0.20  
Year to date precipitation 1.41  
Snow  
Snow 0.00 in - 4.50 in (1969)
Month to date snowfall  
Since 1 July snowfall  
Snow Depth -    
Sea Level Pressure  
Sea Level Pressure 30.33 in    
Wind  
Wind Speed 11 mph (NW)    
Max Wind Speed 23 mph    
Max Gust Speed 34 mph    
Visibility 10 miles    
Events Snow    
T = Trace of Precipitation, MM = Missing Value Source: NWS Daily Summary

Daily Weather History Graph

Daily Weather History Graph

Search for Another Location

Airport or City:

Trip Planner

Search our weather history database for the weather conditions in past years. The results will help you decide how hot, cold, wet, or windy it might be!

Date:

Astronomy

Mar. 05, 2013 Rise Set
Actual Time 7:12 AM CST 6:47 PM CST
Civil Twilight 6:46 AM CST 7:12 PM CST
Nautical Twilight 6:17 AM CST 7:42 PM CST
Astronomical Twilight 5:47 AM CST 8:11 PM CST
Moon 2:18 AM CST (3/5) 12:36 PM CST (3/5)
Length of Visible Light 12h 25m
Length of Day
11h 34m
Last Quarter, 40% of the Moon is Illuminated
Mar 5
Last Quarter
Mar 11
New
Mar 19
First Quarter
Mar 27
Full
Apr 2
Last Quarter

Hourly Weather History & Observations

Time (CST) Temp. Windchill Dew Point Humidity Pressure Visibility Wind Dir Wind Speed Gust Speed Precip Events Conditions
12:15 AM 32.0 °F 21.6 °F 30.2 °F 93% 30.22 in 7.0 mi North 15.0 mph - N/A   Overcast
12:35 AM 30.2 °F 16.8 °F 28.4 °F 93% 30.22 in 3.0 mi North 23.0 mph 34.5 mph N/A Snow Light Snow
12:55 AM 30.2 °F 17.4 °F 28.4 °F 93% 30.21 in 10.0 mi North 20.7 mph 24.2 mph N/A   Mostly Cloudy
1:15 AM 32.0 °F 20.8 °F 26.6 °F 80% 30.22 in 10.0 mi North 17.3 mph 23.0 mph N/A   Scattered Clouds
1:55 AM 30.2 °F 18.9 °F 28.4 °F 93% 30.24 in 10.0 mi North 16.1 mph - N/A   Clear
2:35 AM 30.2 °F 21.9 °F 26.6 °F 86% 30.26 in 10.0 mi NNW 9.2 mph - N/A   Clear
2:55 AM 28.4 °F 19.7 °F 24.8 °F 86% 30.27 in 10.0 mi NNW 9.2 mph - N/A   Clear
3:15 AM 28.4 °F 19.7 °F 23.0 °F 80% 30.27 in 10.0 mi NW 9.2 mph - N/A   Clear
3:35 AM 26.6 °F 14.7 °F 23.0 °F 86% 30.27 in 10.0 mi North 15.0 mph - N/A   Clear
3:55 AM 26.6 °F 16.2 °F 23.0 °F 86% 30.27 in 10.0 mi North 11.5 mph - N/A   Clear
4:15 AM 26.6 °F 16.2 °F 21.2 °F 80% 30.27 in 10.0 mi NNW 11.5 mph - N/A   Clear
4:55 AM 23.0 °F 15.8 °F 19.4 °F 86% 30.31 in 10.0 mi NNW 5.8 mph - N/A   Clear
5:15 AM 23.0 °F 15.8 °F 19.4 °F 86% 30.31 in 10.0 mi NNW 5.8 mph - N/A   Clear
5:35 AM 23.0 °F 14.7 °F 19.4 °F 86% 30.31 in 10.0 mi NW 6.9 mph - N/A   Clear
5:55 AM 21.2 °F 11.7 °F 17.6 °F 86% 30.33 in 10.0 mi West 8.1 mph - N/A   Clear
6:15 AM 21.2 °F 12.6 °F 17.6 °F 86% 30.33 in 10.0 mi NW 6.9 mph - N/A   Clear
6:55 AM 21.2 °F 12.6 °F 17.6 °F 86% 30.35 in 10.0 mi NW 6.9 mph - N/A   Clear
7:15 AM 21.2 °F 13.6 °F 17.6 °F 86% 30.35 in 10.0 mi WNW 5.8 mph - N/A   Clear
7:35 AM 21.2 °F 11.7 °F 17.6 °F 86% 30.36 in 10.0 mi NW 8.1 mph - N/A   Clear
7:55 AM 23.0 °F 13.9 °F 17.6 °F 80% 30.38 in 10.0 mi NW 8.1 mph - N/A   Clear
8:15 AM 24.8 °F 14.6 °F 17.6 °F 74% 30.39 in 10.0 mi NNW 10.4 mph - N/A   Clear
8:35 AM 26.6 °F 15.2 °F 17.6 °F 69% 30.39 in 10.0 mi North 13.8 mph - N/A   Clear
8:55 AM 26.6 °F 16.2 °F 17.6 °F 69% 30.40 in 10.0 mi North 11.5 mph - N/A   Clear
9:15 AM 28.4 °F 19.7 °F 17.6 °F 64% 30.42 in 10.0 mi North 9.2 mph - N/A   Clear
9:35 AM 30.2 °F 21.9 °F 17.6 °F 60% 30.42 in 10.0 mi North 9.2 mph - N/A   Clear
9:55 AM 32.0 °F 24.8 °F 17.6 °F 55% 30.42 in 10.0 mi North 8.1 mph - N/A   Clear
10:15 AM 32.0 °F 23.0 °F 15.8 °F 51% 30.42 in 10.0 mi North 11.5 mph - N/A   Clear
10:35 AM 33.8 °F 25.3 °F 12.2 °F 41% 30.42 in 10.0 mi NNW 11.5 mph - N/A   Clear
10:55 AM 33.8 °F 25.3 °F 12.2 °F 41% 30.41 in 10.0 mi North 11.5 mph 18.4 mph N/A   Clear
11:15 AM 35.6 °F 28.0 °F 12.2 °F 38% 30.41 in 10.0 mi NNW 10.4 mph 18.4 mph N/A   Clear
11:35 AM 35.6 °F 29.9 °F 12.2 °F 38% 30.41 in 10.0 mi NNW 6.9 mph - N/A   Clear
11:55 AM 35.6 °F 29.2 °F 14.0 °F 41% 30.40 in 10.0 mi NW 8.1 mph - N/A   Clear
12:15 PM 37.4 °F 32.8 °F 14.0 °F 38% 30.40 in 10.0 mi North 5.8 mph - N/A   Clear
12:35 PM 37.4 °F 31.4 °F 14.0 °F 38% 30.40 in 10.0 mi NNW 8.1 mph - N/A   Clear
12:55 PM 39.2 °F 35.9 °F 14.0 °F 36% 30.39 in 10.0 mi North 4.6 mph - N/A   Clear
1:15 PM 41.0 °F 37.1 °F 14.0 °F 33% 30.38 in 10.0 mi WNW 5.8 mph - N/A   Clear
1:35 PM 41.0 °F 38.0 °F 12.2 °F 31% 30.37 in 10.0 mi NNE 4.6 mph - N/A   Clear
1:55 PM 41.0 °F 38.0 °F 14.0 °F 33% 30.36 in 10.0 mi NW 4.6 mph - N/A   Clear
2:15 PM 42.8 °F 39.3 °F 15.8 °F 34% 30.35 in 10.0 mi SSW 5.8 mph - N/A   Clear
2:35 PM 42.8 °F - 15.8 °F 34% 30.34 in 10.0 mi Calm Calm - N/A   Clear
2:55 PM 42.8 °F 41.1 °F 14.0 °F 31% 30.32 in 10.0 mi SSW 3.5 mph - N/A   Clear
3:15 PM 44.6 °F 43.1 °F 15.8 °F 31% 30.32 in 10.0 mi West 3.5 mph - N/A   Clear
3:35 PM 44.6 °F 41.4 °F 14.0 °F 29% 30.31 in 10.0 mi WSW 5.8 mph - N/A   Clear
3:55 PM 44.6 °F 40.7 °F 15.8 °F 31% 30.31 in 10.0 mi SW 6.9 mph - N/A   Clear
4:15 PM 44.6 °F 41.4 °F 14.0 °F 29% 30.31 in 10.0 mi SSW 5.8 mph - N/A   Clear
4:35 PM 44.6 °F 42.2 °F 14.0 °F 29% 30.31 in 10.0 mi SSW 4.6 mph - N/A   Clear
4:55 PM 44.6 °F 42.2 °F 14.0 °F 29% 30.31 in 10.0 mi SSW 4.6 mph - N/A   Clear
5:15 PM 44.6 °F 42.2 °F 12.2 °F 27% 30.30 in 10.0 mi WSW 4.6 mph - N/A   Clear
5:35 PM 44.6 °F 42.2 °F 12.2 °F 27% 30.30 in 10.0 mi SSW 4.6 mph - N/A   Clear
5:55 PM 44.6 °F 41.4 °F 12.2 °F 27% 30.30 in 10.0 mi SSW 5.8 mph - N/A   Clear
6:15 PM 42.8 °F 38.6 °F 12.2 °F 29% 30.30 in 10.0 mi South 6.9 mph - N/A   Clear
6:35 PM 39.2 °F 34.2 °F 14.0 °F 36% 30.30 in 10.0 mi South 6.9 mph - N/A   Clear
6:55 PM 35.6 °F 29.9 °F 12.2 °F 38% 30.30 in 10.0 mi South 6.9 mph - N/A   Clear
7:15 PM 35.6 °F 31.7 °F 14.0 °F 41% 30.30 in 10.0 mi South 4.6 mph - N/A   Clear
7:35 PM 35.6 °F 30.7 °F 14.0 °F 41% 30.30 in 10.0 mi SE 5.8 mph - N/A   Clear
7:55 PM 33.8 °F 27.7 °F 14.0 °F 44% 30.30 in 10.0 mi SE 6.9 mph - N/A   Clear
8:15 PM 32.0 °F 25.6 °F 14.0 °F 48% 30.29 in 10.0 mi SE 6.9 mph - N/A   Clear
8:35 PM 32.0 °F 25.6 °F 15.8 °F 51% 30.30 in 10.0 mi SE 6.9 mph - N/A   Clear
8:55 PM 32.0 °F 25.6 °F 15.8 °F 51% 30.31 in 10.0 mi SE 6.9 mph - N/A   Clear
9:15 PM 30.2 °F 22.6 °F 15.8 °F 55% 30.30 in 10.0 mi SE 8.1 mph - N/A   Clear
9:35 PM 30.2 °F 21.9 °F 15.8 °F 55% 30.30 in 10.0 mi SE 9.2 mph - N/A   Clear
9:55 PM 28.4 °F 20.4 °F 17.6 °F 64% 30.31 in 10.0 mi SE 8.1 mph - N/A   Clear
10:15 PM 28.4 °F 19.7 °F 17.6 °F 64% 30.31 in 10.0 mi SE 9.2 mph - N/A   Clear
10:35 PM 28.4 °F 20.4 °F 17.6 °F 64% 30.31 in 10.0 mi SSE 8.1 mph - N/A   Clear
10:55 PM 26.6 °F 18.2 °F 17.6 °F 69% 30.31 in 10.0 mi SSE 8.1 mph - N/A   Clear
11:15 PM 26.6 °F 18.2 °F 17.6 °F 69% 30.30 in 10.0 mi SSE 8.1 mph - N/A   Clear
11:35 PM 26.6 °F 18.2 °F 17.6 °F 69% 30.30 in 10.0 mi SSE 8.1 mph - N/A   Clear
11:55 PM 26.6 °F 16.8 °F 17.6 °F 69% 30.29 in 10.0 mi SSE 10.4 mph - N/A   Clear